Hlavní strana
METAR-TAF:

METAR-TAF

Letiště :

Savonlinna, Finsko

zeměpisná šířka: 61-57N, zeměpisná délka: 028-57E, výška: 95 m

Aktuální stav počasí

Zpráva byla vytvořena před 42 minutami, v 00:50 UTC
Západoseverozápadní vítr 6 kt
Teplota 1°C
Vlhkost vzduchu 75%
Tlak 1009 hPa
Viditelnost 10 km a více
Žádná oblačnost pod 1500 m, nevyskytují se cumulonimby.

METAR: EFSA 090050Z AUTO 29006KT CAVOK 01/M03 Q1009

Čas: 04:32 (01:32 UTC)


TAF: chybějící

Stav a předpovědi počasí z více než 4 000 letišť (zprávy METAR a TAF).

Červené a žluté tečky na mapě představují dostupné meteorologické stanice.

Když kurzor umístíte na tečku, zobrazí se název stanice.

Pak kliknutím zobrazíte stav a předpověď počasí.

Chcete-li změnit mapu, kliknutím na zelené tlačítko se znaménkem +mapu přiblížíte, kliknutím na zelené tlačítko se znaménkem – mapu oddálíte a kliknutím na zelené šipky přejdete na sousední mapy.


METAR-TAF: